TJS-11

Last updated on Sun Apr 12 2026 00:02:56 GMT+0000 (Coordinated Universal Time)

1 59020U 24037A 26101.54452416 -.00000371 00000+0 00000+0 0 9993 2 59020 4.2891 326.2404 0005238 73.4870 116.3985 1.00275759 7916
UTC large
Height (km)
Speed (km/s)
/
Latitude / Longitude
Inclination (degrees)
Orbital Period (minutes)
Azimuth
Elevation
Range (km)
Doppler Factor

Next 0 passes for location: London (51.5072 / 0.1276)

Sorry there are no passes over London.